This demonstration page uses our WeatherBlox Daily Observations layout. Learn more.

Left ArrowRight Arrow

39.29038, -76.61219

Hourly Observations for February 24, 2019

Temp ( °F °C ) Dew Point ( °F °C ) Humidity (%) Winds ( mph kmh ) Pressure ( in mb ) Visibility ( mi km ) Precip ( " mm )
12:54 am 00:54 undefined 38 3.3 35 1.7 89 89 undefined N/A 30.07 1018 N/A N/A
1:54 am 01:54 undefined 38 3.3 35 1.7 89 89 undefined N/A 29.97 1015 N/A N/A
2:54 am 02:54 undefined 38 3.3 36 2.2 93 93 undefined N/A 29.98 1015 N/A 0.02 0.51
3:54 am 03:54 undefined 38 3.3 36 2.2 93 93 undefined N/A 29.84 1010 N/A 0.06 1.52
4:54 am 04:54 undefined 39 3.9 37 2.8 93 93 undefined N/A 29.86 1011 N/A 0.14 3.56
5:54 am 05:54 undefined 39 3.9 36 2.2 89 89 undefined N/A 29.83 1010 N/A 0.08 2.03
6:54 am 06:54 undefined 38 3.3 36 2.2 93 93 undefined N/A 29.79 1009 N/A 0.07 1.78
7:54 am 07:54 undefined 39 3.9 36 2.2 89 89 undefined N/A 29.74 1007 N/A 0.07 1.78
8:54 am 08:54 undefined 39 3.9 36 2.2 89 89 undefined N/A 29.70 1006 N/A 0.05 1.27
9:54 am 09:54 undefined 40 4.4 38 3.3 93 93 undefined N/A 29.65 1004 N/A 0.16 4.06
10:54 am 10:54 undefined 42 5.6 38 3.3 85 85 undefined N/A 29.62 1003 N/A N/A
11:54 am 11:54 undefined 44 6.7 40 4.4 85 85 undefined N/A 29.57 1001 N/A N/A
12:54 pm 12:54 undefined 46 7.8 41 5 83 83 undefined N/A 29.51 999 N/A N/A
1:54 pm 13:54 undefined 48 8.9 42 5.6 80 80 undefined N/A 29.47 998 N/A N/A
2:54 pm 14:54 undefined 50 10 43 6.1 77 77 undefined N/A 29.47 998 N/A N/A
3:54 pm 15:54 undefined 52 11.1 43 6.1 72 72 undefined N/A 29.44 997 N/A N/A
4:54 pm 16:54 undefined 53 11.7 45 7.2 74 74 undefined N/A 29.46 998 N/A N/A
5:54 pm 17:54 undefined 54 12.2 45 7.2 72 72 undefined N/A 29.50 999 N/A N/A
6:54 pm 18:54 undefined 53 11.7 28 -2.2 38 38 undefined N/A 29.57 1002 N/A N/A
7:54 pm 19:54 undefined 50 10 27 -2.8 41 41 undefined N/A 29.61 1003 N/A N/A
8:54 pm 20:54 undefined 49 9.4 22 -5.6 35 35 undefined N/A 29.63 1004 N/A N/A
9:54 pm 21:54 undefined 47 8.3 18 -7.8 31 31 undefined N/A 29.66 1004 N/A N/A
10:54 pm 22:54 undefined 46 7.8 17 -8.3 31 31 undefined N/A 29.67 1005 N/A N/A
11:54 pm 23:54 undefined 46 7.8 15 -9.4 29 29 undefined N/A 29.68 1005 N/A N/A

Powered by AerisWeather